Temperature
-3 -2 -3 -3 -3 -3 -3 -3 -3 -3 -3 -2 -3 -3 -3 -3 -3 -3 -3 -3 -3 -3 -3 -3 -3 -3 -3 -2 -2 -2 -2 -2 -2 -2 -2 -3 -3 -3 -3 -3 -3 -3 -3 -2
-4 -3 -3 -3 -3 -3 -3 -3 -4 -3 -3 -4 -4 -3 -4 -4 -4 -4 -4 -4 -4 -4 -3 -3 -3 -3 -3 -3 -3 -3 -3 -3 -3 -3 -3 -3 -3 -3 -3 -3 -3 -3 -3 -3
-4 -4 -4 -4 -4 -4 -4 -5 -4 -4 -3 -4 -5 -5 -5 -4 -4 -4 -4 -4 -4 -4 -4 -4 -4 -4 -3 -4 -3 -3 -4 -4 -4 -4 -4 -4 -4 -4 -4 -4 -4 -4 -4 -4
-5 -5 -4 -4 -5 -5 -5 -5 -6 -5 -5 -5 -5 -5 -5 -5 -5 -5 -5 -4 -4 -4 -4 -4 -4 -4 -4 -4 -4 -4 -4 -4 -4 -5 -5 -5 -5 -5 -5 -5 -5 -5 -5 -5
-5 -5 -5 -5 -5 -6 -5 -6 -7 -6 -6 -6 -6 -6 -6 -5 -5 -5 -5 -5 -5 -5 -5 -5 -5 -5 -5 -5 -5 -5 -5 -5 -5 -5 -5 -5 -5 -5 -5 -6 -6 -6 -6 -6
-6 -6 -5 -5 -6 -6 -6 -6 -7 -7 -7 -7 -7 -7 -6 -5 -5 -5 -5 -5 -5 -5 -5 -5 -5 -5 -5 -5 -5 -5 -5 -5 -6 -6 -6 -6 -6 -6 -6 -6 -6 -6 -6 -7
-6 -6 -6 -7 -7 -6 -5 -5 -6 -7 -7 -7 -8 -7 -6 -6 -6 -6 -6 -6 -6 -6 -6 -6 -6 -6 -6 -6 -6 -6 -6 -6 -6 -6 -7 -7 -7 -7 -7 -7 -7 -7 -7 -7
-7 -7 -6 -7 -8 -7 -7 -7 -7 -7 -7 -7 -7 -7 -7 -7 -7 -7 -7 -7 -7 -7 -6 -6 -7 -7 -7 -7 -7 -7 -7 -7 -7 -7 -7 -7 -8 -8 -8 -8 -8 -8 -8 -8
-7 -6 -7 -8 -7 -7 -7 -7 -7 -7 -7 -8 -8 -8 -8 -8 -8 -7 -7 -7 -7 -7 -7 -7 -7 -7 -7 -7 -7 -8 -8 -8 -8 -8 -8 -8 -8 -8 -8 -8 -8 -9 -9 -9
-9 -9 -9 -8 -8 -7 -7 -8 -8 -8 -8 -8 -8 -9 -9 -9 -9 -8 -8 -8 -8 -8 -8 -8 -8 -8 -8 -8 -8 -8 -8 -8 -8 -8 -8 -8 -9 -9 -9 -9 -9 -9 -9 -9
-10 -10 -9 -8 -8 -8 -8 -8 -8 -8 -8 -9 -9 -9 -9 -9 -9 -9 -9 -9 -9 -9 -8 -8 -9 -9 -9 -9 -9 -9 -9 -9 -9 -9 -9 -9 -9 -9 -9 -9 -10 -10 -10 -10
-9 -9 -10 -8 -8 -8 -8 -8 -9 -9 -9 -9 -9 -9 -10 -10 -9 -9 -9 -9 -9 -9 -9 -9 -9 -9 -9 -9 -10 -10 -9 -9 -9 -10 -10 -10 -10 -10 -10 -10 -10 -10 -10 -11
-9 -9 -9 -9 -9 -9 -9 -9 -9 -10 -10 -10 -10 -10 -10 -10 -10 -10 -10 -10 -10 -10 -10 -10 -10 -10 -10 -10 -10 -10 -10 -10 -10 -10 -10 -10 -10 -10 -10 -10 -11 -11 -11 -11
-9 -10 -10 -10 -10 -10 -10 -10 -10 -10 -10 -10 -10 -10 -10 -10 -10 -10 -10 -10 -10 -10 -10 -10 -10 -11 -11 -11 -11 -10 -10 -11 -11 -11 -11 -11 -11 -11 -11 -11 -11 -11 -11 -11
-10 -10 -10 -10 -10 -10 -10 -11 -11 -11 -11 -11 -10 -10 -10 -10 -10 -10 -10 -11 -11 -11 -11 -11 -11 -11 -11 -11 -11 -11 -11 -11 -11 -11 -11 -11 -11 -11 -11 -12 -12 -12 -11 -11
-11 -11 -11 -11 -11 -11 -11 -11 -11 -11 -11 -11 -11 -11 -11 -11 -11 -11 -11 -11 -11 -11 -11 -12 -12 -12 -12 -12 -11 -11 -11 -11 -11 -12 -12 -12 -12 -12 -12 -12 -12 -12 -12 -12
-11 -11 -11 -11 -11 -11 -11 -11 -11 -11 -11 -11 -11 -11 -11 -11 -11 -11 -12 -12 -12 -12 -12 -12 -12 -12 -12 -12 -12 -12 -12 -12 -12 -12 -12 -12 -12 -12 -12 -12 -12 -12 -12 -12
-11 -11 -12 -12 -12 -11 -11 -12 -12 -12 -12 -12 -12 -12 -12 -12 -12 -12 -12 -12 -12 -13 -13 -13 -13 -12 -12 -12 -12 -12 -12 -12 -12 -12 -12 -13 -13 -13 -13 -13 -13 -13 -13 -13
-12 -12 -12 -12 -12 -12 -12 -12 -12 -12 -12 -12 -12 -12 -12 -12 -13 -13 -13 -13 -13 -13 -13 -13 -13 -13 -13 -13 -13 -13 -13 -13 -13 -13 -13 -13 -13 -13 -13 -13 -13 -13 -13 -13
-12 -12 -12 -12 -12 -12 -12 -12 -12 -12 -12 -12 -12 -13 -13 -13 -13 -13 -13 -13 -13 -14 -14 -14 -14 -13 -13 -13 -13 -13 -13 -13 -13 -13 -13 -13 -13 -13 -13 -14 -14 -13 -13 -13
-13 -13 -13 -13 -13 -13 -13 -13 -13 -13 -13 -13 -13 -13 -13 -13 -14 -14 -14 -14 -14 -14 -14 -14 -14 -14 -14 -14 -14 -14 -14 -14 -14 -14 -14 -14 -14 -14 -14 -14 -14 -14 -14 -14
-13 -13 -13 -13 -13 -13 -13 -13 -13 -13 -13 -13 -14 -14 -14 -14 -14 -14 -14 -14 -14 -14 -14 -14 -14 -14 -14 -14 -14 -14 -14 -14 -14 -14 -14 -14 -14 -14 -14 -14 -14 -14 -14 -14
-13 -13 -13 -13 -13 -13 -13 -14 -14 -14 -14 -14 -14 -14 -14 -14 -14 -14 -14 -15 -15 -15 -15 -15 -15 -15 -15 -15 -14 -14 -14 -15 -14 -15 -15 -15 -15 -15 -15 -15 -15 -15 -15 -15
-14 -14 -14 -14 -14 -14 -14 -14 -14 -14 -14 -14 -14 -14 -15 -15 -15 -15 -15 -15 -15 -15 -15 -15 -15 -15 -15 -15 -15 -15 -15 -15 -15 -15 -15 -15 -15 -15 -15 -15 -15 -15 -15 -15
-14 -14 -14 -14 -14 -14 -14 -14 -14 -14 -15 -15 -15 -15 -15 -15 -15 -15 -15 -15 -15 -15 -15 -15 -15 -15 -15 -15 -15 -15 -15 -15 -15 -15 -15 -15 -15 -15 -15 -15 -15 -15 -15 -15
-14 -14 -14 -14 -15 -15 -15 -15 -15 -15 -15 -15 -15 -15 -15 -15 -15 -15 -15 -15 -15 -16 -16 -16 -16 -16 -16 -16 -16 -16 -15 -15 -15 -16 -16 -15 -15 -15 -15 -15 -15 -15 -15 -15
-14 -15 -15 -15 -15 -15 -15 -15 -15 -15 -15 -16 -15 -15 -15 -16 -16 -16 -16 -16 -16 -16 -16 -16 -16 -16 -16 -16 -16 -16 -16 -16 -16 -16 -16 -16 -16 -16 -16 -16 -16 -15 -15 -15
Wind_Speed
6 6 4 5 6 6 7 8 8 8 7 7 5 5 3 2 1 2 2 1 1 1 1 1 1 1 1 1 2 2 3 3 3 3 3 3 3 3 3 3 3 3 2 2
5 4 4 6 8 7 8 6 7 7 8 6 4 2 2 2 2 2 3 2 2 2 2 2 2 2 2 2 2 2 3 3 2 2 3 3 3 3 3 3 3 2 3 3
5 4 2 6 7 8 5 5 6 9 9 2 2 3 4 4 3 3 4 3 3 3 3 3 3 3 3 3 2 2 2 2 2 3 3 3 3 3 3 3 3 3 3 3
1 1 5 6 2 4 6 5 5 5 5 3 4 4 3 3 3 4 4 4 4 4 4 4 3 2 2 2 2 2 2 3 3 3 3 3 3 3 3 3 3 3 4 4
2 3 6 6 2 2 4 6 5 5 5 4 3 2 4 3 3 4 5 5 5 4 4 3 2 2 1 2 2 2 3 3 3 3 3 3 4 4 3 3 3 4 4 4
3 3 6 6 3 1 2 5 4 3 5 4 2 3 6 3 3 4 4 4 4 4 3 2 2 1 1 2 2 3 3 3 3 3 4 4 4 4 3 3 4 4 4 4
5 5 7 5 3 2 3 6 3 3 4 4 4 7 5 5 5 5 5 5 4 3 2 2 2 1 2 2 3 3 3 2 2 3 3 4 4 3 3 3 3 4 5 5
4 5 7 2 3 5 5 2 2 2 3 4 6 6 5 5 5 4 4 4 3 2 2 2 1 2 2 3 3 2 2 2 2 2 3 3 3 3 3 3 3 4 4 5
6 6 3 3 4 3 2 2 3 3 4 4 5 6 5 5 4 4 4 4 3 2 2 2 1 2 2 3 2 2 2 2 2 2 2 3 3 3 3 3 3 3 4 4
4 5 4 4 3 3 3 4 5 5 5 4 5 5 5 5 4 4 4 3 2 1 1 2 2 2 2 2 1 2 2 2 2 2 2 2 3 3 3 3 4 4 4 4
5 5 4 5 4 5 5 4 4 4 4 4 4 4 4 4 4 4 3 3 2 1 2 3 2 2 2 2 1 2 2 2 2 2 2 2 2 3 4 4 5 5 5 5
6 5 4 5 4 3 3 4 4 4 4 3 3 4 4 3 3 3 3 3 2 2 2 2 2 3 2 2 1 2 2 2 2 2 2 2 2 2 4 4 6 7 7 7
5 4 4 5 4 3 3 4 4 4 4 4 3 3 3 3 3 3 3 2 2 2 2 2 2 2 3 2 1 2 2 2 2 2 2 2 2 2 3 3 5 6 7 8
4 2 4 4 4 4 3 3 3 3 3 3 3 2 2 2 2 2 3 3 2 2 2 2 2 3 3 2 1 1 1 2 2 2 2 2 3 3 3 3 3 4 5 7
4 4 5 4 4 4 3 2 2 3 3 3 2 1 1 1 2 3 3 3 2 2 2 2 2 4 3 2 1 1 1 1 2 2 2 2 2 2 3 3 4 4 4 5
5 3 3 3 4 4 3 3 3 4 3 3 2 2 2 1 2 2 2 2 1 2 3 3 3 4 3 2 2 2 1 3 3 2 2 2 2 2 3 3 3 4 4 4
3 4 4 4 4 4 4 4 4 4 3 2 2 2 1 1 2 3 3 2 1 2 3 3 3 4 3 2 2 2 2 2 4 3 2 2 2 3 3 3 3 4 4 5
4 5 5 4 4 4 4 4 3 3 2 2 2 1 1 1 2 3 3 2 2 3 3 3 3 3 3 3 2 1 1 2 2 2 2 2 2 2 2 3 3 4 4 5
3 3 3 3 3 3 3 3 3 2 2 2 1 1 1 2 2 2 2 2 2 3 4 4 5 4 3 3 3 1 1 2 2 2 2 3 3 2 2 3 3 4 4 4
3 3 3 3 3 2 2 2 2 2 2 1 1 1 1 2 2 2 2 2 3 3 4 4 3 3 3 3 3 1 1 2 2 2 2 2 2 3 3 3 3 4 4 4
3 3 3 3 3 3 3 2 2 2 2 2 1 1 2 3 2 2 1 3 4 4 3 5 3 3 3 3 3 1 1 2 2 2 3 3 3 3 3 3 4 4 4 4
3 3 3 3 3 3 3 3 2 2 2 2 2 2 2 3 3 2 2 3 4 6 3 2 3 5 5 3 1 1 2 2 2 2 3 3 3 4 4 4 4 5 5 5
3 3 3 3 2 3 3 3 2 2 2 2 2 3 3 3 2 2 3 3 3 5 4 3 5 7 5 2 1 2 2 2 3 3 3 3 4 4 4 5 5 5 5 5
2 3 3 3 2 2 3 4 3 2 2 3 3 3 3 3 2 2 3 5 6 6 3 5 7 7 6 2 2 2 2 3 3 4 4 4 4 4 5 5 5 5 5 6
2 2 2 3 2 2 3 4 3 3 3 3 3 3 3 2 2 3 3 3 6 6 3 5 8 7 4 2 2 3 3 4 4 3 3 4 4 5 5 5 5 6 6 6
2 2 2 2 2 3 3 2 3 3 3 3 3 3 2 2 2 3 3 3 4 5 4 3 4 5 3 3 3 4 4 4 5 4 4 5 5 5 5 6 6 6 6 6
2 2 2 2 3 2 2 2 3 3 3 3 4 3 3 3 2 3 3 3 3 3 4 3 3 3 3 3 4 4 4 4 4 5 5 5 5 5 5 6 6 7 7 7
Wind_Direction
252 259 223 242 248 219 208 215 222 245 242 254 254 250 258 263 299 340 344 355 351 324 298 290 287 280 272 252 223 192 181 188 203 201 193 191 193 195 203 213 226 233 239 247
274 268 246 262 260 239 231 229 236 251 262 265 272 253 260 259 258 281 293 299 301 310 305 285 271 269 265 259 242 199 191 201 200 192 191 196 201 200 203 211 219 224 231 237
263 284 328 267 243 219 213 219 213 233 244 244 261 246 243 251 251 255 268 276 280 282 280 271 265 259 251 249 238 200 200 206 200 195 200 205 208 207 213 219 224 231 238 238
250 50 235 244 227 204 211 242 238 240 256 253 253 254 263 259 254 265 271 275 282 285 284 278 266 263 247 227 205 199 200 207 210 205 210 211 211 219 225 228 228 235 245 244
182 232 267 284 269 191 209 263 253 237 259 285 309 320 289 273 252 254 263 272 274 274 276 277 270 252 214 209 201 201 214 217 216 212 215 219 223 228 233 233 245 245 249 246
180 212 241 254 266 249 139 272 263 229 249 266 308 276 273 284 277 277 282 283 284 288 289 273 270 230 198 217 209 222 231 231 222 215 219 228 233 237 242 241 248 252 260 256
209 228 256 263 269 112 172 256 286 226 243 252 241 244 275 300 299 293 293 294 290 280 270 263 254 203 216 225 232 239 241 238 232 226 228 234 238 240 232 245 251 252 260 265
186 214 249 252 134 177 225 271 276 275 264 259 262 274 290 299 302 304 306 308 303 287 286 283 238 191 216 246 248 238 230 230 237 237 237 237 228 238 237 232 240 250 258 269
198 214 232 175 190 230 244 260 274 276 276 269 275 281 290 296 299 302 298 301 302 286 297 302 262 203 226 263 250 231 231 232 238 245 239 231 224 228 233 229 233 247 251 263
245 259 259 253 252 280 268 258 271 273 277 275 268 276 283 292 299 302 300 296 301 302 297 298 289 273 252 258 243 209 230 241 235 230 239 239 237 229 227 230 235 244 251 261
255 276 295 276 256 262 273 277 284 288 281 268 260 273 276 286 293 298 305 308 304 276 275 288 303 301 285 260 220 210 226 241 243 239 234 247 255 248 247 246 240 246 252 254
239 243 236 265 278 286 282 286 283 288 296 289 262 268 279 282 289 297 303 309 310 303 290 290 300 303 297 274 220 203 224 237 235 235 240 241 254 289 290 275 274 272 269 269
250 275 261 271 290 295 287 288 289 284 279 286 288 276 279 286 296 305 310 309 301 296 295 300 308 309 309 300 256 217 220 236 238 234 235 240 243 249 281 301 292 282 279 279
267 276 279 278 280 291 285 288 296 303 296 285 285 289 283 294 310 313 308 304 307 313 315 313 317 314 311 307 293 266 246 253 256 242 241 241 243 245 249 264 286 293 291 287
281 263 255 272 283 290 293 301 314 314 313 315 309 301 293 293 300 305 310 317 331 341 328 321 320 313 315 314 309 292 279 259 250 244 245 243 246 251 253 258 266 282 296 295
291 283 266 265 273 282 287 285 283 290 294 302 313 312 306 304 314 320 324 331 347 330 318 315 307 304 309 313 310 305 292 290 289 265 255 254 248 249 255 259 266 273 281 291
277 278 274 276 276 279 278 272 271 277 288 295 299 314 342 358 351 339 332 332 325 307 306 304 299 304 306 299 284 287 287 290 302 302 278 270 261 254 256 259 265 271 278 285
269 268 262 254 258 270 284 284 280 281 282 285 301 338 357 337 308 310 319 334 341 335 321 304 301 305 307 302 294 288 285 279 279 280 281 277 271 262 261 267 270 276 285 292
323 315 308 293 279 271 277 284 289 292 300 306 314 306 292 289 292 304 320 339 331 318 312 308 319 325 307 307 322 300 295 297 298 296 291 290 298 291 282 279 283 284 288 295
339 339 339 341 344 331 305 306 313 314 314 319 319 319 319 310 307 309 314 300 282 276 289 303 306 300 299 301 315 296 290 292 294 297 301 296 291 288 285 285 285 289 292 293
335 339 342 345 347 349 343 334 328 322 328 339 317 290 290 299 303 300 305 306 307 302 299 311 313 294 289 293 310 308 293 288 286 285 290 290 289 288 288 292 295 296 296 296
330 335 336 339 348 344 342 340 335 327 330 331 320 305 303 308 308 299 273 277 298 316 323 300 294 300 308 317 320 293 285 284 282 282 283 282 282 284 287 290 291 292 292 291
327 328 331 335 334 329 335 339 333 326 314 308 303 300 295 291 294 292 299 301 299 314 322 300 306 316 332 352 321 295 286 283 280 279 279 278 279 279 281 285 286 287 288 290
331 334 333 337 346 350 339 331 325 319 308 304 299 293 288 294 298 283 277 305 319 320 320 316 326 330 341 350 321 304 295 289 281 278 279 280 279 280 280 282 286 288 287 287
331 332 337 342 338 323 314 319 325 323 317 312 307 303 291 277 277 293 297 296 310 320 319 320 326 331 338 321 309 298 292 286 282 281 279 282 282 282 283 284 285 286 287 288
329 324 316 309 301 306 312 315 314 313 312 313 313 308 302 293 282 283 288 291 294 312 314 302 303 313 313 306 299 295 291 294 299 293 282 282 282 282 283 285 286 286 286 286
332 329 326 328 325 318 312 307 302 302 301 298 299 304 303 302 296 292 290 293 296 298 296 294 292 294 296 296 294 290 289 287 286 284 282 281 280 279 281 282 284 286 287 286
Height
1487 1484 1485 1485 1484 1485 1486 1484 1484 1479 1478 1474 1473 1472 1471 1471 1471 1470 1469 1469 1468 1468 1468 1468 1468 1469 1469 1470 1472 1473 1474 1475 1476 1478 1480 1481 1482 1483 1484 1485 1486 1487 1488 1488
1487 1482 1483 1482 1480 1480 1480 1480 1480 1477 1476 1471 1471 1471 1470 1469 1469 1468 1468 1467 1467 1466 1466 1466 1466 1466 1466 1467 1468 1469 1470 1471 1472 1474 1475 1476 1477 1478 1479 1480 1481 1482 1482 1483
1487 1485 1482 1483 1479 1478 1479 1477 1476 1475 1471 1470 1470 1469 1468 1467 1467 1466 1466 1465 1464 1464 1463 1463 1463 1463 1463 1463 1464 1465 1466 1467 1469 1470 1471 1472 1473 1474 1474 1475 1476 1476 1477 1477
1489 1489 1488 1477 1474 1473 1474 1473 1473 1470 1468 1468 1468 1467 1466 1466 1465 1464 1463 1463 1461 1461 1460 1460 1460 1460 1460 1460 1461 1461 1462 1464 1465 1466 1467 1467 1468 1469 1470 1470 1471 1471 1471 1472
1490 1490 1483 1476 1472 1473 1473 1472 1470 1469 1467 1467 1466 1465 1463 1463 1463 1462 1461 1460 1458 1457 1456 1456 1456 1456 1456 1456 1457 1457 1458 1459 1461 1461 1462 1463 1463 1464 1465 1465 1466 1466 1466 1466
1489 1488 1485 1473 1470 1470 1472 1472 1466 1466 1465 1465 1465 1467 1461 1460 1460 1458 1457 1456 1454 1453 1452 1452 1452 1452 1452 1452 1453 1453 1454 1455 1456 1457 1458 1458 1459 1459 1460 1461 1461 1461 1461 1461
1487 1486 1478 1472 1469 1470 1475 1468 1465 1463 1463 1463 1463 1462 1459 1457 1456 1455 1453 1452 1450 1449 1448 1448 1448 1448 1448 1448 1449 1450 1450 1451 1452 1453 1454 1454 1454 1455 1455 1456 1456 1456 1456 1456
1484 1484 1478 1469 1468 1470 1467 1463 1462 1461 1460 1460 1458 1456 1455 1454 1452 1450 1449 1447 1446 1445 1444 1444 1444 1445 1444 1445 1446 1446 1447 1447 1448 1449 1449 1449 1450 1450 1451 1451 1451 1451 1451 1450
1474 1472 1467 1465 1464 1464 1463 1462 1460 1459 1458 1457 1455 1453 1451 1450 1448 1447 1445 1444 1443 1442 1441 1441 1441 1441 1441 1441 1442 1443 1443 1444 1444 1445 1445 1445 1446 1446 1446 1446 1446 1446 1446 1445
1471 1466 1464 1463 1462 1461 1460 1459 1458 1457 1456 1454 1452 1450 1448 1447 1445 1443 1442 1441 1440 1439 1438 1438 1438 1438 1438 1438 1439 1439 1439 1439 1440 1440 1441 1441 1441 1441 1441 1441 1441 1441 1441 1440
1468 1464 1462 1460 1459 1458 1457 1456 1455 1454 1453 1451 1449 1447 1446 1444 1442 1441 1439 1438 1438 1437 1435 1435 1435 1435 1435 1435 1436 1435 1435 1436 1436 1436 1437 1437 1437 1437 1437 1437 1437 1437 1436 1436
1463 1460 1460 1457 1456 1456 1454 1453 1452 1451 1449 1448 1446 1444 1443 1441 1440 1439 1437 1436 1435 1434 1433 1433 1432 1432 1432 1432 1432 1432 1432 1432 1432 1432 1433 1432 1432 1432 1433 1433 1433 1432 1432 1432
1459 1458 1457 1455 1454 1453 1452 1451 1449 1448 1446 1445 1443 1442 1441 1439 1438 1437 1435 1434 1433 1432 1431 1431 1430 1430 1430 1430 1429 1429 1428 1428 1429 1429 1429 1429 1428 1428 1427 1428 1428 1428 1427 1427
1456 1455 1453 1452 1451 1450 1449 1448 1447 1445 1444 1442 1440 1439 1438 1437 1436 1434 1433 1432 1431 1430 1429 1429 1428 1427 1427 1427 1426 1426 1426 1426 1426 1425 1425 1425 1425 1424 1424 1423 1422 1422 1422 1422
1453 1452 1451 1449 1448 1447 1446 1445 1444 1442 1441 1440 1438 1437 1436 1435 1433 1432 1432 1431 1430 1428 1427 1427 1426 1425 1425 1425 1424 1424 1423 1423 1423 1422 1422 1422 1421 1421 1420 1420 1419 1418 1417 1417
1450 1448 1447 1446 1445 1444 1443 1442 1441 1440 1439 1437 1436 1435 1434 1433 1432 1431 1430 1429 1428 1426 1425 1424 1423 1423 1423 1422 1422 1421 1421 1420 1420 1419 1419 1418 1418 1417 1416 1416 1415 1414 1413 1412
1447 1445 1444 1443 1442 1441 1440 1440 1439 1437 1436 1435 1434 1433 1432 1431 1430 1429 1428 1427 1426 1425 1424 1422 1421 1421 1420 1420 1419 1419 1418 1417 1417 1416 1416 1415 1414 1414 1413 1412 1411 1411 1410 1409
1445 1444 1442 1441 1440 1439 1438 1438 1437 1435 1434 1433 1432 1431 1430 1429 1428 1427 1426 1425 1424 1423 1422 1421 1420 1419 1418 1418 1417 1416 1415 1415 1414 1413 1412 1412 1411 1410 1409 1409 1408 1407 1406 1405
1443 1441 1440 1439 1438 1437 1436 1435 1434 1434 1433 1432 1430 1429 1428 1427 1426 1425 1424 1423 1421 1420 1419 1418 1418 1417 1416 1415 1415 1414 1413 1412 1411 1410 1409 1409 1408 1407 1406 1405 1404 1403 1402 1401
1441 1440 1439 1438 1437 1436 1435 1433 1433 1432 1431 1430 1429 1427 1426 1426 1425 1423 1422 1421 1419 1418 1417 1416 1415 1414 1414 1413 1412 1411 1410 1409 1408 1407 1406 1405 1405 1404 1403 1402 1401 1400 1398 1397
1440 1439 1438 1436 1435 1434 1433 1432 1431 1430 1429 1428 1427 1425 1424 1423 1423 1421 1420 1418 1418 1417 1415 1414 1413 1412 1411 1411 1410 1409 1407 1406 1405 1404 1403 1403 1402 1401 1400 1399 1397 1396 1395 1393
1439 1438 1436 1435 1434 1433 1432 1431 1430 1428 1427 1426 1425 1424 1422 1421 1420 1419 1418 1417 1415 1414 1413 1412 1411 1410 1409 1408 1407 1406 1404 1403 1402 1401 1400 1400 1399 1398 1396 1395 1394 1393 1391 1390
1438 1437 1435 1434 1433 1431 1430 1429 1428 1427 1425 1424 1423 1422 1420 1419 1418 1417 1415 1414 1413 1412 1411 1410 1409 1408 1407 1405 1404 1402 1401 1400 1399 1398 1397 1396 1395 1394 1393 1392 1390 1389 1387 1386
1437 1435 1434 1433 1432 1430 1429 1428 1427 1425 1424 1423 1421 1420 1419 1417 1416 1415 1413 1412 1411 1410 1408 1407 1406 1405 1403 1402 1400 1399 1398 1397 1396 1395 1394 1393 1392 1391 1389 1388 1387 1385 1383 1381
1435 1434 1433 1432 1430 1429 1428 1426 1425 1423 1422 1421 1419 1418 1417 1415 1414 1412 1411 1410 1408 1407 1405 1404 1403 1402 1400 1398 1397 1396 1394 1393 1392 1391 1390 1389 1388 1387 1385 1384 1382 1381 1379 1377
1434 1433 1432 1430 1429 1428 1426 1425 1423 1422 1420 1418 1417 1416 1414 1413 1411 1410 1409 1407 1406 1404 1403 1401 1400 1398 1397 1395 1394 1392 1391 1390 1389 1388 1387 1385 1384 1383 1381 1380 1378 1377 1375 1373
1433 1432 1430 1429 1428 1426 1425 1423 1421 1420 1418 1416 1415 1413 1412 1410 1409 1407 1406 1404 1403 1401 1400 1398 1397 1395 1394 1392 1391 1389 1388 1387 1385 1384 1383 1382 1380 1378 1377 1375 1374 1372 1370 1369